Stations météo

réclame
Mon MeteoGroup
Cardinham, Grande-Bretagne (3823): Température de l'air & dewpoint: 08.08.2020 20:00:00 - 14.08.2020 20:00:00 (BST)Cardinham, Grande-Bretagne (3823): Température de l'air -20cm & Température de l'air -100cm: 08.08.2020 20:00:00 - 14.08.2020 20:00:00 (BST)Cardinham, Grande-Bretagne (3823): Vitesse du vent: 08.08.2020 20:00:00 - 14.08.2020 20:00:00 (BST)Cardinham, Grande-Bretagne (3823): Direction du vent: 08.08.2020 20:00:00 - 14.08.2020 20:00:00 (BST)Cardinham, Grande-Bretagne (3823): reduced air pressure: 08.08.2020 20:00:00 - 14.08.2020 20:00:00 (BST)Cardinham, Grande-Bretagne (3823): visibility: 08.08.2020 20:00:00 - 14.08.2020 20:00:00 (BST)Cardinham, Grande-Bretagne (3823): Quantités de précipitations: 08.08.2020 20:00:00 - 14.08.2020 20:00:00 (BST)
Date & Time tt [°C] td [°C] tt -20cm [°C] tt -100cm [°C] ff [km/h] ff [knt] dd ppp [hPa] vv [km] rr [mm]
14.08.2020 20:00:00 - - - - - - - - - -
14.08.2020 19:00:00 - - - - - - - - - -
14.08.2020 18:00:00 - - - - - - - - - -
14.08.2020 17:00:00 - - - - - - - - - -
14.08.2020 16:00:00 - - - - - - - - - -
14.08.2020 15:00:00 - - - - - - - - - -
14.08.2020 14:00:00 - - - - - - - - - -
14.08.2020 13:00:00 - - - - - - - - - -
14.08.2020 12:00:00 - - - - - - - - - -
14.08.2020 11:00:00 - - - - - - - - - -
14.08.2020 10:00:00 - - - - - - - - - -
14.08.2020 09:00:00 - - - - - - - - - -
14.08.2020 08:00:00 - - - - - - - - - -
14.08.2020 07:00:00 - - - - - - - - - -
14.08.2020 06:00:00 - - - - - - - - - -
14.08.2020 05:00:00 - - - - - - - - - -
14.08.2020 04:00:00 - - - - - - - - - -
14.08.2020 03:00:00 - - - - - - - - - -
14.08.2020 02:00:00 - - - - - - - - - -
14.08.2020 01:00:00 - - - - - - - - - -
14.08.2020 00:00:00 - - - - - - - - - -
13.08.2020 23:00:00 - - - - - - - - - -
13.08.2020 22:00:00 - - - - - - - - - -
13.08.2020 21:00:00 - - - - - - - - - -
13.08.2020 20:00:00 - - - - - - - - - -
13.08.2020 19:00:00 - - - - - - - - - -
13.08.2020 18:00:00 - - - - - - - - - -
13.08.2020 17:00:00 - - - - - - - - - -
13.08.2020 16:00:00 - - - - - - - - - -
13.08.2020 15:00:00 - - - - - - - - - -
13.08.2020 14:00:00 - - - - - - - - - -
13.08.2020 13:00:00 - - - - - - - - - -
13.08.2020 12:00:00 - - - - - - - - - -
13.08.2020 11:00:00 - - - - - - - - - -
13.08.2020 10:00:00 - - - - - - - - - -
13.08.2020 09:00:00 - - - - - - - - - -
13.08.2020 08:00:00 - - - - - - - - - -
13.08.2020 07:00:00 - - - - - - - - - -
13.08.2020 06:00:00 - - - - - - - - - -
13.08.2020 05:00:00 - - - - - - - - - -
13.08.2020 04:00:00 - - - - - - - - - -
13.08.2020 03:00:00 - - - - - - - - - -
13.08.2020 02:00:00 - - - - - - - - - -
13.08.2020 01:00:00 - - - - - - - - - -
13.08.2020 00:00:00 - - - - - - - - - -
12.08.2020 23:00:00 19,0 18,4 - - 11 6 ENE 1011,5 11 0,2
12.08.2020 22:00:00 18,8 18,0 - - 5 3 S 1011,7 2,1 1,8
12.08.2020 21:00:00 20,0 18,4 - - 11 6 SSE 1011,7 7 0,0
12.08.2020 20:00:00 20,8 18,1 - - 5 3 SE 1010,9 11 0,0
12.08.2020 19:00:00 23,0 18,8 - - 9 5 SSW 1010,9 15 0,0
12.08.2020 18:00:00 25,7 20,2 - - 8 4 WNW 1010,6 25 0,0
12.08.2020 17:00:00 26,1 20,2 - - 9 5 S 1011,0 30 0,0
12.08.2020 16:00:00 27,2 19,7 - - 9 5 SSE 1011,1 28 0,0
12.08.2020 15:00:00 26,7 19,2 - - 13 7 SSE 1011,4 29 0,0
12.08.2020 14:00:00 27,2 19,2 - - 15 8 ESE 1011,6 27 0,0
12.08.2020 13:00:00 26,5 20,8 - - 5 3 N 1012,1 22 0,0
12.08.2020 12:00:00 24,7 22,0 - - 5 3 NNW 1012,0 18 0,0
12.08.2020 11:00:00 20,9 20,4 - - 9 5 NW 1012,5 9 0,0
12.08.2020 10:00:00 20,7 20,7 19,4 16,9 13 7 NNW 1012,2 5 0,0
12.08.2020 09:00:00 20,1 20,0 - - 5 3 N 1012,1 11 0,0
12.08.2020 08:00:00 17,9 17,9 - - 8 4 N 1012,4 4,4 0,0
12.08.2020 07:00:00 15,8 15,8 - - 11 6 NW 1012,8 0,1 0,0
12.08.2020 06:00:00 15,2 15,2 - - 15 8 NNW 1012,7 0,2 0,0
12.08.2020 05:00:00 15,4 15,4 - - 15 8 NNW 1012,9 0,3 0,0
12.08.2020 04:00:00 15,6 15,6 - - 16 9 NNW 1013,2 0,2 0,0
12.08.2020 03:00:00 15,6 15,6 - - 18 10 NNW 1013,4 0,3 0,2
12.08.2020 02:00:00 15,4 15,4 - - 21 11 NNW 1013,4 0,2 0,0
12.08.2020 01:00:00 15,4 15,4 - - 15 8 NNW 1013,9 0,2 0,0
12.08.2020 00:00:00 15,7 15,7 - - 13 7 NNW 1014,4 0,1 0,0
11.08.2020 23:00:00 15,8 15,7 - - 13 7 NNW 1014,6 0,2 0,0
11.08.2020 22:00:00 16,3 16,2 - - 16 9 NNW 1014,7 0,3 0,0
11.08.2020 21:00:00 16,6 16,4 - - 15 8 NNW 1014,4 0,3 0,0
11.08.2020 20:00:00 17,4 16,8 - - 18 10 NNW 1014,4 1,5 0,0
11.08.2020 19:00:00 19,7 17,9 - - 21 11 NNW 1013,7 8 0,0
11.08.2020 18:00:00 20,6 18,1 - - 21 11 NW 1013,8 10 0,0
11.08.2020 17:00:00 21,8 19,3 - - 21 11 NW 1014,0 12 0,0
11.08.2020 16:00:00 22,9 19,7 - - 21 11 NW 1014,5 10 0,0
11.08.2020 15:00:00 22,6 19,5 - - 18 10 NW 1014,6 16 0,0
11.08.2020 14:00:00 24,3 20,6 - - 15 8 NW 1014,5 15 0,0
11.08.2020 13:00:00 25,1 20,1 - - 11 6 NW 1014,5 14 0,0
11.08.2020 12:00:00 24,5 20,9 - - 5 3 W 1014,8 17 0,0
11.08.2020 11:00:00 22,5 19,9 - - 4 2 SW 1014,9 23 0,0
11.08.2020 10:00:00 19,7 19,7 19,0 16,7 2 1 WNW 1015,1 27 0,0
11.08.2020 09:00:00 16,9 16,9 - - 11 6 NNW 1015,2 2,1 0,0
11.08.2020 08:00:00 16,2 16,2 - - 11 6 NNW 1015,1 0,3 0,0
11.08.2020 07:00:00 15,6 15,6 - - 5 3 NW 1015,4 0,1 0,0
11.08.2020 06:00:00 15,5 15,5 - - 15 8 NW 1015,1 0,3 0,0
11.08.2020 05:00:00 15,8 15,8 - - 15 8 NNW 1014,8 0,2 0,0
11.08.2020 04:00:00 15,7 15,7 - - 13 7 NNW 1014,9 0,1 0,0
11.08.2020 03:00:00 15,8 15,8 - - 11 6 NNW 1015,2 0,2 0,0
11.08.2020 02:00:00 15,8 15,8 - - 16 9 NNW 1015,4 0,5 0,0
11.08.2020 01:00:00 16,1 16,1 - - 15 8 NNW 1015,5 0,1 0,0
11.08.2020 00:00:00 16,3 16,2 - - 16 9 NNW 1015,8 0,1 0,0
10.08.2020 23:00:00 16,5 16,4 - - 15 8 NNW 1015,8 0,4 0,0
10.08.2020 22:00:00 16,5 16,4 - - 15 8 NNW 1015,7 0,2 0,0
10.08.2020 21:00:00 16,7 16,5 - - 18 10 NNW 1015,3 1,2 0,0
10.08.2020 20:00:00 17,4 16,8 - - 22 12 NNW 1014,9 3,6 0,0
10.08.2020 19:00:00 19,0 17,6 - - 21 11 NW 1014,5 7 0,0
10.08.2020 18:00:00 20,7 17,7 - - 22 12 NW 1014,2 10 0,0
10.08.2020 17:00:00 23,9 19,1 - - 5 3 NW 1014,1 21 0,0
10.08.2020 16:00:00 21,5 17,2 - - 11 6 NNE 1014,6 16 0,0
10.08.2020 15:00:00 23,1 18,2 - - 15 8 N 1014,0 27 0,0
10.08.2020 14:00:00 22,5 18,7 - - 18 10 NNW 1013,7 14 0,0
10.08.2020 13:00:00 22,1 18,7 - - 15 8 N 1014,5 16 0,0
10.08.2020 12:00:00 22,0 18,8 - - 21 11 NNW 1014,5 13 0,0
10.08.2020 11:00:00 20,3 18,6 - - 18 10 NNW 1014,8 14 0,0
10.08.2020 10:00:00 18,3 17,4 18,7 16,5 21 11 NW 1014,4 8 0,0
10.08.2020 09:00:00 18,1 18,1 - - 21 11 NW 1014,5 8 0,0
10.08.2020 08:00:00 16,2 16,2 - - 16 9 NNW 1014,9 2,6 0,0
10.08.2020 07:00:00 15,8 15,8 - - 18 10 NNW 1014,7 1,8 0,0
10.08.2020 06:00:00 15,6 15,6 - - 18 10 NNW 1014,5 1,9 0,0
10.08.2020 05:00:00 15,4 15,4 - - 16 9 NNW 1015,2 0,2 0,0
10.08.2020 04:00:00 15,1 15,1 - - 16 9 NNW 1015,7 0,2 0,0
10.08.2020 03:00:00 14,6 14,6 - - 18 10 NW 1016,3 0,7 0,0
10.08.2020 02:00:00 14,9 14,8 - - 18 10 NNW 1016,0 0,3 0,0
10.08.2020 01:00:00 14,1 14,0 - - 18 10 NNW 1016,7 2,2 0,0
10.08.2020 00:00:00 14,3 14,0 - - 15 8 NNW 1017,0 4,8 0,0
09.08.2020 23:00:00 15,3 14,9 - - 15 8 N 1017,2 2,9 0,0
09.08.2020 22:00:00 16,0 15,6 - - 18 10 N 1017,5 3,5 0,0
09.08.2020 21:00:00 16,3 15,6 - - 21 11 NNW 1017,3 3,8 0,0
09.08.2020 20:00:00 16,6 15,0 - - 22 12 NNW 1017,2 8 0,0
09.08.2020 19:00:00 18,4 15,5 - - 18 10 NNW 1017,0 13 0,0
09.08.2020 18:00:00 20,9 16,9 - - 21 11 NNW 1016,8 19 0,0
09.08.2020 17:00:00 21,3 16,9 - - 18 10 N 1017,4 19 0,0
09.08.2020 16:00:00 23,1 19,0 - - 21 11 NW 1017,5 30 0,0
09.08.2020 15:00:00 23,2 18,8 - - 13 7 NNW 1017,5 20 0,0
09.08.2020 14:00:00 23,4 19,0 - - 16 9 NW 1017,6 27 0,0
09.08.2020 13:00:00 22,7 18,9 - - 11 6 NNW 1018,1 18 0,0
09.08.2020 12:00:00 20,3 19,4 - - 15 8 NNW 1018,5 14 0,0
09.08.2020 11:00:00 17,8 17,8 - - 15 8 NW 1019,0 10 0,0
09.08.2020 10:00:00 16,9 16,9 18,5 16,4 13 7 NNW 1019,1 4,9 0,0
09.08.2020 09:00:00 15,9 15,9 - - 15 8 NNW 1019,1 0,3 0,0
09.08.2020 08:00:00 15,1 15,1 - - 15 8 NNW 1019,1 0,1 0,0
09.08.2020 07:00:00 14,7 14,7 - - 18 10 NNW 1019,3 0,1 0,0
09.08.2020 06:00:00 14,6 14,6 - - 21 11 NNW 1019,3 0,2 0,0
09.08.2020 05:00:00 14,5 14,5 - - 24 13 NNW 1019,3 0,4 0,0
09.08.2020 04:00:00 14,6 14,6 - - 21 11 NNW 1019,5 0,1 0,0
09.08.2020 03:00:00 14,4 14,4 - - 21 11 NNW 1019,9 0,3 0,0
09.08.2020 02:00:00 14,0 14,0 - - 16 9 NNW 1020,1 0,3 0,2
09.08.2020 01:00:00 13,3 13,3 - - 16 9 NNW 1020,4 0,3 0,0
09.08.2020 00:00:00 13,5 13,5 - - 15 8 NNW 1020,5 0,3 0,0
08.08.2020 23:00:00 14,3 14,2 - - 18 10 NNW 1020,4 0,4 0,0
08.08.2020 22:00:00 14,7 14,5 - - 18 10 NNW 1020,5 0,7 0,0
08.08.2020 21:00:00 15,3 14,9 - - 21 11 NW 1020,4 6 0,0
08.08.2020 20:00:00 16,6 15,7 - - 18 10 NNW 1020,3 12 0,0

tt = Température de l'air
td = dewpoint
tt -20cm = Température de l'air -20cm
tt -100cm = Température de l'air -100cm
ff = Vitesse du vent
dd = Direction du vent
ppp = reduced air pressure
vv = visibility
rr = Quantités de précipitations

stations d'obs. à proximité